sat.trackr.live / text

‹ back to catalog

STARLINK-4144

NORAD 53257 · 2022-086R

PAYLOAD ACTIVE UNKNOWN

§ Identity

Operator
Country
US
Launch date
2022-07-24
Launch site
AFETR
Launch vehicle
Mass (kg)
RCS (m²)

Purposes: comms

External: N2YO · Heavens-Above · Gunter

§ Orbital elements

Epoch: 2026-09-20T01:58:38.930592Z

Period
94.01 min
Inclination
53.1613°
Eccentricity
0.0001534
Mean motion
15.31727270 rev/d
Perigee alt
469.6 km
Apogee alt
471.7 km
Semi-major
6,848.8 km
B*
1.3695e-4
RAAN
35.7710°
Arg perigee
73.3616°
Mean anomaly
286.7553°
Rev number
23,048

§ Raw data

STARLINK-41441 53257U 22086R   26263.08239503  .00003890  00000+0  13695-3 0  99952 53257  53.1613  35.7710 0001534  73.3616 286.7553 15.31727270230483

JSON: /api/v1/satellites/53257 · /tle

For live sub-satellite position, see the globe view (requires WebGL).

§ Visibility from observer

Set your observer location to see the next 7 days of passes ≥ 10°. The values pass through the URL so the page stays shareable.

No JS? Fill the form by hand. The geolocation button needs JavaScript.